Wind_Speed
5 5 5 4 4 4 4 4 4 3 3 2 1 1 1 1 2 2 2 1 1 1 1 1 2 2 3 3 3 4 4 4 4 4 3 3 4 4 5 5 6 6 6
5 5 5 4 4 4 3 3 3 3 3 3 2 1 1 2 2 2 1 2 2 2 2 2 2 3 3 3 4 5 5 5 5 5 5 5 5 5 5 6 7 8 8
5 5 4 3 3 3 2 2 2 3 3 3 2 2 2 2 2 2 2 2 2 2 2 2 2 3 4 4 4 5 6 6 6 7 7 7 7 7 7 7 7 8 9
5 5 4 3 3 3 2 2 2 2 3 2 2 2 2 2 3 3 2 2 3 3 3 3 4 4 4 5 6 6 7 7 7 8 8 8 8 8 8 8 8 8 9
6 5 5 4 3 3 2 1 1 1 2 2 2 2 2 2 3 3 3 3 4 3 4 4 5 5 6 7 7 7 7 7 8 8 8 9 9 9 8 8 8 9 10
5 5 5 4 4 3 3 2 2 2 2 2 2 2 2 3 4 4 4 5 5 5 5 6 6 7 8 8 8 8 8 8 8 9 9 9 10 9 9 9 9 9 10
4 4 4 4 4 3 3 3 3 2 2 2 3 3 4 5 5 5 6 6 6 6 7 8 8 9 9 10 9 9 9 9 9 10 10 10 10 10 10 10 10 10 10
4 3 3 3 3 4 4 4 3 3 3 3 4 5 5 6 7 7 7 7 8 8 9 10 10 10 10 10 10 10 10 10 10 10 10 10 11 11 11 12 12 12 12
4 5 4 4 4 4 4 4 4 4 5 5 6 6 7 7 8 8 8 9 9 10 12 12 11 11 12 12 12 12 12 11 11 11 12 12 12 12 12 13 14 14 14
6 6 6 4 4 4 5 5 5 5 6 7 8 8 9 8 9 9 9 10 10 11 12 13 13 13 13 13 13 12 12 12 12 13 13 13 13 13 13 14 15 15 16
6 6 7 6 5 6 6 7 7 7 8 8 9 9 9 9 10 10 10 11 11 12 14 14 14 14 14 14 14 13 14 14 14 14 13 14 14 14 14 14 15 16 16
7 7 8 7 7 7 8 8 8 9 9 10 10 10 10 10 11 11 12 12 13 13 14 14 15 15 15 15 15 15 15 15 15 15 15 15 15 15 15 15 15 16 16
8 8 9 9 9 9 10 9 9 10 10 10 11 11 12 12 13 13 13 14 15 15 15 15 15 15 16 16 16 16 16 17 17 16 16 16 15 15 15 16 16 17 17
10 10 10 10 9 9 9 10 10 11 11 11 12 13 13 13 14 14 15 15 15 15 16 15 15 16 16 17 17 17 17 17 17 17 17 17 16 17 17 17 17 18 18
11 11 11 10 10 10 10 10 11 11 12 12 12 13 13 13 14 15 15 15 15 16 16 17 17 17 18 18 18 17 17 17 18 18 18 18 18 18 18 18 19 19 19
12 11 11 11 11 11 12 12 12 13 13 13 14 14 14 14 15 15 16 16 17 17 16 17 18 19 19 19 19 18 18 17 17 18 18 19 19 19 19 20 20 20 20
13 13 13 13 13 13 13 13 13 14 14 15 16 16 16 16 16 16 17 17 18 19 19 18 19 19 19 19 20 20 20 19 19 18 18 19 19 19 20 20 21 21 20
13 13 14 14 14 15 15 15 15 15 16 17 17 17 17 17 17 17 18 19 19 20 21 20 20 20 21 21 21 21 21 21 20 20 20 19 19 19 19 20 20 21 21
14 14 15 15 16 16 17 16 16 16 17 17 17 16 17 18 18 19 19 20 21 21 21 22 22 22 22 22 22 22 22 22 22 20 20 20 19 19 20 20 20 21 22
14 15 15 16 16 17 17 17 17 17 17 17 18 18 19 19 20 20 21 22 22 23 23 23 22 22 22 23 22 22 23 23 22 22 20 20 21 20 20 21 21 21 21
15 15 16 16 17 17 17 18 19 19 19 19 19 20 20 21 22 22 23 23 24 24 24 23 23 24 23 24 23 23 23 23 23 22 22 21 21 21 21 21 21 21 21
17 16 16 17 18 18 19 19 19 20 20 21 21 21 22 23 23 23 24 25 25 24 24 23 24 24 24 25 25 24 24 23 23 22 23 22 22 22 22 22 22 23 23
18 18 18 18 19 19 20 20 21 22 22 22 22 22 22 23 24 24 25 25 25 24 23 23 24 24 24 24 24 24 23 23 22 22 23 23 23 22 23 23 24 24 24
19 19 19 19 19 20 20 21 22 23 23 23 23 23 23 23 24 24 24 25 25 24 23 24 24 24 24 24 24 23 23 23 23 23 23 23 23 23 24 24 24 25 25
20 20 20 20 21 21 22 22 23 24 24 24 24 25 25 24 24 24 24 24 24 23 23 23 23 23 24 23 23 23 23 22 22 23 23 23 23 24 24 25 25 25 25
21 22 22 22 22 22 23 23 24 24 25 25 26 26 25 25 25 25 24 24 23 23 23 23 24 24 24 24 24 24 23 22 22 22 23 24 23 23 23 24 25 25 25
Wind_Direction
85 80 79 82 76 69 67 82 83 78 70 70 77 83 93 53 23 38 42 37 32 358 346 347 327 323 323 322 302 301 294 283 281 281 273 263 256 254 252 248 244 246 240
84 80 78 81 72 69 68 62 53 47 46 41 47 60 33 33 19 18 6 9 16 358 350 342 324 317 314 309 303 300 294 283 277 277 275 268 261 257 257 254 248 249 249
84 81 73 70 61 63 61 51 36 30 35 35 47 54 45 38 11 9 6 352 358 360 343 323 322 319 312 307 308 304 298 289 279 273 271 271 268 261 258 262 256 253 253
76 75 69 65 57 53 44 38 25 29 32 26 37 36 20 11 4 1 1 349 342 344 335 324 316 306 307 307 313 310 300 294 286 278 271 272 273 269 264 265 260 258 256
63 69 66 57 53 43 33 30 19 16 20 13 8 358 339 335 342 342 338 333 328 322 319 312 310 304 301 304 306 307 304 295 288 280 275 272 273 270 268 269 266 262 258
50 54 49 42 35 20 5 354 324 309 313 317 325 334 327 320 322 323 315 315 315 312 312 312 310 306 300 298 299 302 302 297 289 281 278 274 271 269 267 267 267 266 262
31 21 25 21 18 11 358 349 337 314 306 308 313 314 310 303 310 307 304 303 304 304 304 304 303 303 301 301 301 300 297 292 288 284 281 278 275 273 265 262 262 264 260
10 8 8 356 354 350 346 340 319 310 307 298 296 297 299 302 303 300 296 296 298 302 302 297 294 296 299 300 303 297 291 291 288 284 283 280 275 275 268 261 261 260 258
353 350 337 335 339 336 331 332 317 301 304 298 293 293 292 298 300 298 295 295 296 299 299 295 295 294 294 298 300 295 292 289 286 283 281 279 277 273 270 263 261 261 261
340 345 342 328 322 320 320 319 309 306 304 302 297 295 294 295 301 304 297 295 295 297 297 295 296 296 294 294 297 293 290 289 287 284 281 278 277 274 273 267 264 263 263
330 333 336 326 311 305 306 305 304 302 303 301 300 299 297 297 301 299 298 297 296 295 296 293 293 295 296 294 295 292 293 288 287 283 281 278 275 274 273 272 267 265 265
327 325 326 326 318 309 306 303 300 300 298 297 298 297 298 298 298 298 296 295 294 293 295 296 294 292 293 291 291 291 290 287 285 282 280 277 273 272 272 271 269 266 265
319 318 317 317 315 309 303 299 299 300 295 293 296 299 299 297 296 295 296 297 296 294 294 295 296 293 289 293 293 292 290 286 284 281 279 277 275 273 272 271 270 268 266
307 307 306 307 307 308 306 301 299 302 299 295 294 298 300 301 300 299 296 296 297 296 294 293 293 293 291 293 296 294 294 289 285 283 279 275 272 272 270 271 271 271 270
301 300 300 300 303 306 307 306 304 304 302 300 299 300 302 303 302 300 299 297 296 296 296 294 293 294 294 293 295 295 294 290 285 284 282 276 272 271 272 272 272 272 272
298 298 293 294 297 299 300 301 303 302 299 298 298 297 299 299 300 300 298 297 297 298 297 295 294 294 296 294 294 294 294 290 290 286 282 278 275 273 273 274 271 272 271
296 294 293 295 293 294 298 299 300 300 296 294 294 294 295 297 298 297 298 298 298 298 296 294 293 294 294 294 292 293 294 293 289 286 282 278 276 275 274 274 271 270 270
296 293 291 292 292 292 294 295 296 297 296 293 293 293 294 295 297 297 298 298 298 297 295 293 292 292 291 291 291 291 292 291 289 287 285 281 277 277 277 274 272 271 270
297 296 294 292 291 291 291 292 293 294 296 295 293 293 294 295 296 295 296 297 297 297 295 292 290 291 291 291 291 290 291 290 287 285 284 280 279 276 278 276 274 272 271
294 294 295 293 289 288 289 290 291 292 295 296 294 294 295 296 296 295 295 295 295 295 294 293 291 290 290 290 290 289 290 290 288 285 286 283 279 275 276 276 274 273 272
292 294 296 293 292 290 290 291 292 292 293 293 293 293 295 296 295 294 294 294 294 294 294 292 291 290 289 288 288 288 288 288 287 286 285 285 281 277 275 276 275 273 274
286 288 292 293 294 294 294 294 293 293 293 293 293 292 294 295 296 297 295 295 294 294 293 292 292 291 289 288 287 286 287 286 285 283 282 282 282 279 276 275 275 275 275
283 285 287 289 292 293 293 292 293 292 291 291 291 290 293 296 296 297 296 297 297 296 293 293 293 292 289 288 286 286 286 284 283 282 283 282 281 281 277 274 273 274 273
281 284 286 289 291 293 293 292 293 292 292 292 291 290 292 295 297 300 301 299 297 296 295 294 293 292 290 289 287 286 285 284 282 282 283 282 281 281 279 276 273 272 274
280 282 284 287 290 293 293 291 292 293 293 293 291 291 291 294 295 298 300 299 296 295 297 296 294 292 291 289 289 288 287 285 283 282 282 282 282 282 280 278 276 274 273
279 282 285 287 289 292 293 293 292 292 292 291 290 292 292 293 294 295 298 300 298 297 297 295 294 293 291 289 288 287 287 286 284 283 282 282 283 281 279 278 277 275 274
Height
5905 5905 5905 5904 5904 5904 5904 5903 5903 5903 5903 5903 5903 5902 5902 5901 5900 5900 5899 5899 5898 5897 5896 5896 5896 5896 5895 5895 5894 5894 5893 5893 5892 5892 5891 5891 5891 5890 5890 5890 5890 5890 5890
5905 5906 5905 5905 5905 5904 5904 5904 5904 5903 5903 5903 5902 5902 5902 5901 5900 5900 5899 5899 5898 5897 5897 5896 5896 5895 5894 5894 5893 5893 5892 5891 5891 5890 5890 5890 5889 5889 5889 5888 5888 5888 5888
5906 5906 5906 5905 5905 5905 5905 5904 5904 5904 5903 5903 5902 5902 5901 5900 5900 5900 5899 5898 5898 5897 5897 5896 5895 5894 5893 5893 5892 5891 5890 5890 5889 5889 5888 5888 5887 5887 5887 5887 5886 5886 5886
5906 5906 5906 5906 5905 5905 5905 5904 5904 5904 5903 5903 5902 5902 5901 5900 5900 5899 5899 5898 5897 5897 5896 5895 5894 5893 5891 5891 5891 5890 5888 5888 5887 5886 5886 5885 5885 5885 5884 5884 5884 5884 5884
5907 5906 5906 5906 5905 5905 5905 5904 5904 5903 5903 5903 5902 5901 5901 5900 5900 5899 5898 5897 5897 5896 5895 5894 5893 5892 5891 5890 5889 5888 5886 5885 5884 5884 5883 5883 5882 5882 5882 5881 5881 5881 5881
5907 5907 5906 5906 5905 5905 5904 5903 5903 5903 5903 5902 5902 5901 5901 5900 5899 5899 5898 5897 5896 5895 5894 5893 5891 5890 5889 5888 5887 5885 5884 5883 5882 5881 5880 5880 5879 5879 5879 5878 5878 5878 5878
5907 5906 5906 5905 5905 5904 5904 5903 5902 5902 5902 5901 5901 5901 5900 5899 5898 5898 5897 5896 5894 5893 5892 5891 5889 5888 5887 5885 5884 5883 5882 5880 5879 5878 5877 5877 5876 5876 5876 5875 5875 5875 5875
5906 5906 5905 5905 5904 5903 5903 5902 5902 5901 5901 5900 5900 5899 5899 5898 5897 5896 5895 5894 5892 5891 5890 5888 5887 5885 5884 5882 5881 5879 5878 5877 5876 5875 5874 5874 5873 5873 5872 5872 5872 5872 5872
5906 5905 5904 5903 5903 5902 5902 5901 5901 5900 5899 5899 5898 5898 5897 5896 5895 5894 5892 5891 5890 5889 5887 5885 5884 5882 5881 5879 5878 5877 5875 5874 5873 5872 5871 5870 5869 5869 5868 5868 5868 5868 5868
5905 5904 5903 5902 5902 5901 5900 5900 5899 5898 5898 5897 5896 5895 5895 5893 5893 5891 5890 5889 5887 5886 5884 5882 5880 5879 5877 5876 5874 5873 5872 5870 5869 5868 5867 5866 5866 5865 5865 5864 5864 5864 5864
5903 5902 5902 5901 5900 5899 5898 5898 5897 5896 5895 5894 5894 5893 5892 5891 5890 5889 5887 5886 5884 5883 5881 5879 5877 5876 5874 5872 5871 5869 5868 5867 5865 5864 5863 5863 5862 5861 5860 5860 5859 5859 5859
5901 5901 5900 5899 5898 5897 5896 5895 5894 5893 5892 5891 5891 5890 5889 5888 5886 5885 5884 5882 5881 5879 5877 5875 5874 5872 5870 5868 5867 5865 5864 5862 5861 5860 5859 5858 5857 5856 5856 5855 5855 5855 5855
5899 5898 5897 5896 5895 5894 5893 5892 5891 5890 5889 5888 5887 5886 5885 5884 5883 5882 5880 5878 5876 5875 5873 5872 5870 5868 5866 5864 5862 5861 5859 5858 5856 5855 5854 5853 5852 5852 5851 5851 5850 5850 5850
5897 5895 5894 5893 5892 5891 5890 5888 5887 5886 5885 5884 5883 5882 5881 5880 5878 5877 5876 5874 5872 5871 5869 5867 5865 5863 5862 5860 5858 5856 5855 5853 5852 5850 5849 5848 5847 5847 5846 5846 5845 5845 5845
5893 5892 5891 5890 5889 5888 5886 5885 5884 5883 5882 5881 5879 5878 5877 5876 5874 5872 5871 5869 5868 5866 5865 5862 5860 5859 5857 5855 5853 5852 5850 5848 5847 5845 5844 5843 5842 5842 5841 5841 5840 5840 5839
5890 5889 5888 5886 5885 5884 5883 5882 5880 5879 5878 5877 5875 5874 5873 5871 5869 5868 5866 5864 5863 5861 5859 5858 5856 5854 5852 5850 5848 5847 5845 5843 5841 5840 5839 5837 5837 5836 5835 5835 5834 5834 5833
5886 5885 5884 5883 5881 5880 5879 5878 5877 5875 5874 5872 5871 5870 5868 5866 5865 5863 5861 5860 5858 5856 5854 5852 5850 5849 5847 5845 5843 5841 5840 5838 5836 5834 5833 5832 5831 5830 5829 5829 5828 5828 5827
5882 5881 5880 5879 5877 5876 5875 5874 5872 5871 5869 5867 5866 5865 5863 5861 5860 5858 5856 5854 5852 5850 5848 5846 5844 5843 5841 5839 5837 5835 5834 5832 5830 5829 5828 5826 5825 5824 5823 5823 5822 5822 5821
5878 5876 5875 5874 5873 5871 5870 5869 5868 5866 5864 5863 5861 5859 5858 5856 5855 5853 5851 5848 5846 5844 5842 5840 5838 5836 5834 5832 5830 5828 5827 5825 5824 5822 5821 5820 5819 5818 5817 5817 5816 5815 5815
5873 5872 5870 5869 5868 5866 5865 5864 5863 5861 5859 5858 5856 5854 5852 5851 5849 5847 5845 5842 5840 5838 5836 5834 5832 5830 5828 5825 5824 5822 5820 5819 5817 5816 5815 5814 5813 5812 5811 5811 5810 5809 5809
5868 5867 5866 5864 5863 5861 5860 5859 5857 5856 5854 5852 5850 5849 5847 5845 5842 5840 5838 5836 5833 5831 5829 5827 5825 5823 5821 5819 5817 5815 5814 5812 5811 5810 5809 5808 5807 5806 5805 5804 5803 5803 5802
5863 5862 5861 5860 5858 5856 5855 5853 5852 5850 5848 5846 5844 5842 5840 5838 5836 5834 5831 5829 5826 5824 5822 5820 5818 5816 5814 5812 5811 5809 5807 5806 5805 5804 5802 5801 5800 5799 5798 5797 5797 5796 5796
5858 5857 5856 5855 5853 5851 5849 5848 5846 5844 5842 5840 5838 5836 5834 5832 5829 5827 5824 5822 5819 5816 5815 5813 5811 5809 5807 5805 5804 5802 5800 5799 5798 5797 5796 5794 5793 5792 5791 5790 5789 5789 5788
5852 5851 5850 5849 5847 5846 5843 5841 5840 5838 5835 5833 5831 5830 5827 5825 5823 5820 5818 5815 5812 5810 5808 5805 5804 5802 5800 5798 5796 5795 5793 5792 5791 5789 5788 5787 5786 5785 5784 5782 5782 5781 5780
5846 5845 5844 5843 5841 5839 5837 5835 5833 5831 5829 5826 5824 5823 5820 5818 5816 5814 5811 5809 5806 5803 5801 5799 5796 5794 5792 5791 5789 5788 5787 5785 5784 5782 5781 5780 5778 5777 5776 5775 5774 5773 5772
5840 5839 5838 5836 5835 5832 5830 5828 5825 5823 5821 5819 5817 5815 5813 5811 5809 5806 5804 5802 5799 5797 5794 5792 5790 5788 5786 5784 5782 5781 5779 5778 5777 5776 5774 5772 5771 5770 5769 5767 5766 5765 5764